Location: UBC Liquid-Mirror Observatory
(49.2876°N, 122.5728°W)
Time: 13:35:45
(UTC-07:00)

KITSAT 1 - Visible Passes

Search period start: 01 July 2016 00:00
Search period end: 11 July 2016 00:00
Orbit: 1307 x 1324 km, 66.1° (Epoch: 01 July)

Date Brightness Start Highest point End Pass type
(mag) Time Alt. Az. Time Alt. Az. Time Alt. Az.
02 Jul 12.8 04:16:53 10° ESE 04:18:26 11° E 04:19:59 10° E visible
06 Jul 12.7 03:26:41 10° E 03:27:27 10° E 03:28:13 10° E visible
07 Jul 12.3 03:38:11 10° SE 03:42:52 17° E 03:47:34 10° ENE visible
08 Jul 11.9 03:52:12 10° SSE 03:58:25 25° ESE 04:04:39 10° NE visible
09 Jul 11.4 04:06:57 10° S 04:14:06 36° ESE 04:21:15 10° NE visible
10 Jul 11.0 04:22:10 10° S 04:29:53 50° ESE 04:37:37 10° NE visible
